Zurück zum Katalog

COSMOS 1266 FUEL CORE

AktivLEO
NORAD 12435·DEBRIS·🇷🇺 Russia

Gestartet Apr 21, 1981 von Baikonur Cosmodrome

Loading…

Nächste Überflüge (nächste 24 Stunden)

TLE

AktuellSource: Space-Track

Epoche: Sep 14, 2026, 16:54 UTC

1 12435U 81037D   26257.70475481 -.00000099  00000-0 -49986-5 0  9993
2 12435  64.7672 240.5054 0027747 232.6220 127.2316 13.93193732308704

Verfolge COSMOS 1266 FUEL CORE in Echtzeit mit AllMySat

Download on the App Store